[[{"header":{"parameterUnit":"m.s-1","parameterCategory":2,"la1":30.2991,"la2":30.254,"lo1":-89.0895,"lo2":-89.0444,"dy":0.0017,"dx":0.0017,"nx":28,"ny":28,"refTime":"2023-08-07T21:00:00:Z","depth":"0","parameterNumber":2,"parameterNumberName":"U-component_of_CURRENTS"},"data":[0,0,0,0,0,0,0,0,0,0,0,0,0,0,0,0,0,0,0,0,0,0,0,0,0,0,0,0,0,0,0,0,0,0,0,0,0,0,0,0,0,0,0,0,0,0,0,0,0,0,0,0,0,0,0,0,0,0,0.3207,0.3208,0,0.3289,0.329,0.3291,0.3318,0.3317,0.3317,0.3317,0.3354,0.3355,0.3357,0,0,0,0,0,0,0,0,0,0,0,0,0,0.306,0.3062,0.3207,0.3208,0.3209,0.3289,0.329,0.3291,0.3318,0.3317,0.3317,0.3317,0.3354,0.3355,0.3357,0,0,0,0,0,0,0,0,0,0,0,0,0,0.313,0.3063,0.3207,0.3233,0.3236,0.3289,0.329,0.3291,0.3318,0.3317,0.3317,0.3317,0.3353,0.3355,0.3357,0.3377,0,0,0.3363,0.3363,0,0,0,0,0,0,0,0,0.3126,0.3135,0.3228,0.3231,0.3235,0.3293,0.3252,0.3318,0.3318,0.3286,0.3317,0.3316,0.3331,0.3334,0.335,0.3379,0.338,0.3363,0.3364,0.3365,0.3365,0,0,0,0,0,0,0,0.3121,0.3132,0.3239,0.3229,0.3234,0.3236,0.3245,0.3264,0.3308,0.3289,0.3291,0.3302,0.3332,0.3348,0.3351,0.3381,0.3363,0.3364,0.3366,0.3366,0.3528,0.3531,0,0,0,0,0,0,0.3115,0.3128,0.3236,0.3241,0.3179,0.3239,0.3249,0.3274,0.3309,0.3314,0.3302,0.3303,0.3345,0.3349,0.3352,0.3443,0.3365,0.3367,0.3368,0.3525,0.3528,0.3532,0,0,0,0,0,0,0.3111,0.3124,0.3233,0.3186,0.32,0.3242,0.327,0.3276,0.3297,0.332,0.3324,0.3316,0.3345,0.335,0.3402,0.3441,0.3367,0.3369,0.3521,0.3526,0.353,0.3581,0,0,0,0,0,0,0.3107,0.3123,0.314,0.3186,0.3202,0.328,0.327,0.3278,0.3304,0.3306,0.3333,0.3336,0.3345,0.34,0.3404,0.3443,0.3371,0.3517,0.3523,0.3529,0.3576,0.3587,0.3597,0,0,0,0,0,0.3102,0.3127,0.3141,0.3154,0.3225,0.3282,0.3291,0.3317,0.3305,0.333,0.3358,0.3336,0.3441,0.3403,0.3408,0.3448,0.3514,0.3521,0.3528,0.3571,0.3585,0.3597,0,0,0,0,0,0,0.3075,0.3134,0.3149,0.3192,0.3241,0.3287,0.3306,0.332,0.336,0.3358,0.3368,0.3375,0.344,0.3443,0.3402,0.3518,0.3477,0.3485,0.3508,0.3521,0.3532,0.3493,0.3372,0,0,0,0,0,0.3077,0.311,0.3168,0.3204,0.3225,0.3264,0.3287,0.3311,0.335,0.3366,0.3384,0.3419,0.3474,0.3494,0.3534,0.3585,0.3604,0.3621,0.3632,0.364,0.3617,0.371,0.3726,0.3555,0.3555,0.3555,0,0,0.3075,0.3112,0.313,0.32,0.3231,0.327,0.3277,0.3321,0.3351,0.3363,0.3403,0.3452,0.3499,0.3571,0.36,0.3575,0.3707,0.3649,0.3656,0.3627,0.3719,0.3735,0.3749,0.356,0.3559,0.3558,0,0,0.3085,0.3122,0.3151,0.3193,0.3251,0.3278,0.3291,0.3345,0.3366,0.3418,0.3453,0.3523,0.3575,0.3634,0.3667,0.3758,0.3763,0.3784,0.3799,0.3892,0.3905,0.3917,0.3984,0.4002,0.3786,0.3786,0.3787,0,0.3083,0.3132,0.317,0.321,0.3242,0.3279,0.3317,0.3349,0.3413,0.3442,0.3433,0.3565,0.3601,0.3712,0.3754,0.3777,0.3826,0.3741,0.3902,0.3915,0.3926,0.3992,0.401,0.379,0.3789,0.3789,0.3789,0,0.3121,0.3158,0.3178,0.3238,0.3276,0.332,0.3368,0.3401,0.3419,0.3459,0.3557,0.3625,0.37,0.3747,0.3771,0.3894,0.3902,0.3906,0.3858,0.3946,0.401,0.4029,0.3795,0.3793,0.3792,0.3792,0,0,0.3135,0.3192,0.3203,0.3224,0.3297,0.333,0.3376,0.3443,0.3471,0.3538,0.3593,0.3712,0.3748,0.3789,0.3854,0.3934,0.4071,0.3954,0.3957,0.3999,0.4273,0.4235,0.4252,0.4115,0.4118,0.412,0.4292,0,0.3161,0.3213,0.3247,0.3296,0.3326,0.337,0.3406,0.3468,0.3513,0.3572,0.3661,0.3735,0.3767,0.3816,0.3908,0.4031,0.4119,0.4023,0.4198,0.4202,0.4141,0.4271,0.4135,0.4273,0.431,0.4313,0.4315,0,0.3183,0.3227,0.3262,0.3314,0.3332,0.3362,0.3425,0.3467,0.3557,0.3595,0.3685,0.3745,0.3882,0.3882,0.4114,0.4058,0.4162,0.4245,0.4255,0.4201,0.4198,0.4191,0.4305,0.4124,0.4343,0.4341,0.4339,0,0.3145,0.3227,0.3244,0.3269,0.3338,0.336,0.3399,0.3476,0.351,0.361,0.3651,0.3801,0.3885,0.4034,0.4193,0.4172,0.4434,0.4425,0.4489,0.4487,0.439,0.4373,0.4322,0.4583,0.4583,0.4582,0.4582,0,0.3134,0.3162,0.3226,0.3238,0.3278,0.3335,0.337,0.3425,0.3506,0.3562,0.3661,0.3743,0.3931,0.409,0.422,0.4414,0.4463,0.4507,0.454,0.4407,0.4391,0.4241,0.413,0.4589,0.4587,0.4586,0.4585,0,0.306,0.3105,0.3135,0.3215,0.3241,0.3264,0.3337,0.3369,0.3452,0.3528,0.3559,0.3735,0.3939,0.4118,0.4373,0.4452,0.4502,0.4682,0.4497,0.4505,0.4356,0.4254,0.4163,0.4078,0.4773,0.4774,0.4774,0,0.3018,0.3015,0.3086,0.3109,0.3142,0.3192,0.3224,0.3321,0.3364,0.3527,0.357,0.3774,0.3914,0.4255,0.4438,0.4658,0.4512,0.4636,0.4559,0.4337,0.425,0.4104,0.4029,0.4469,0.4467,0.4465,0.4464,0,0.295,0.2957,0.2985,0.3024,0.3064,0.3102,0.3167,0.3193,0.3314,0.3398,0.3543,0.3665,0.3989,0.4152,0.442,0.4544,0.4373,0.4603,0.4435,0.4052,0.3829,0.3766,0.4348,0.4447,0.4449,0.445,0.4451,0.4451,0.2899,0.2888,0.2909,0.2931,0.2973,0.2998,0.2994,0.3087,0.3151,0.3261,0.3454,0.359,0.3832,0.4194,0.428,0.4284,0.4296,0.4206,0.4122,0.4012,0.384,0.4368,0.4459,0.4461,0.4462,0.4464,0.4465,0,0.2819,0.2815,0.2826,0.2844,0.2823,0.2888,0.2936,0.2921,0.2964,0.3142,0.3269,0.3435,0.3601,0.3769,0.39,0.3806,0.3721,0.37,0.3437,0.341,0.3945,0.3837,0.372,0.372,0.372,0.372,0.372,0.3721,0.2792,0.2759,0.2741,0.2682,0.2684,0.2646,0.2645,0.2665,0.2752,0.2823,0.29,0.3041,0.3218,0.3337,0.3283,0.3266,0.3032,0.2954,0.2941,0.3254,0.3292,0.3329,0.3202,0.2953,0.2952,0.2343,0.2337,0.2333]},{"header":{"parameterUnit":"m.s-1","parameterCategory":2,"la1":30.2991,"la2":30.254,"lo1":-89.0895,"lo2":-89.0444,"dy":0.0017,"dx":0.0017,"nx":28,"ny":28,"refTime":"2023-08-07T21:00:00:Z","depth":"0","parameterNumber":3,"parameterNumberName":"V-component_of_CURRENTS"},"data":[0,0,0,0,0,0,0,0,0,0,0,0,0,0,0,0,0,0,0,0,0,0,0,0,0,0,0,0,0,0,0,0,0,0,0,0,0,0,0,0,0,0,0,0,0,0,0,0,0,0,0,0,0,0,0,0,0,0,-0.0374,-0.0374,0,-0.0395,-0.0395,-0.0395,-0.0464,-0.0465,-0.0467,-0.0468,-0.0539,-0.0539,-0.054,0,0,0,0,0,0,0,0,0,0,0,0,0,-0.0421,-0.042,-0.0374,-0.0374,-0.0374,-0.0395,-0.0395,-0.0395,-0.0464,-0.0466,-0.0467,-0.0469,-0.0539,-0.0539,-0.054,0,0,0,0,0,0,0,0,0,0,0,0,0,-0.0418,-0.0419,-0.0374,-0.041,-0.0413,-0.0395,-0.0395,-0.0396,-0.0463,-0.0466,-0.0468,-0.047,-0.0538,-0.0539,-0.054,-0.0502,0,0,-0.0542,-0.0543,0,0,0,0,0,0,0,0,-0.0418,-0.0416,-0.0405,-0.0408,-0.0411,-0.0428,-0.0437,-0.0433,-0.0463,-0.0445,-0.0468,-0.0471,-0.0504,-0.0508,-0.0508,-0.0505,-0.0508,-0.0543,-0.0543,-0.0543,-0.0544,0,0,0,0,0,0,0,-0.0418,-0.0416,-0.0383,-0.0405,-0.0409,-0.0435,-0.0436,-0.0437,-0.0464,-0.0447,-0.0452,-0.0452,-0.0507,-0.0507,-0.051,-0.0509,-0.0542,-0.0543,-0.0544,-0.0544,-0.0518,-0.0517,0,0,0,0,0,0,-0.0409,-0.0415,-0.0383,-0.0384,-0.0419,-0.0432,-0.0434,-0.0421,-0.0463,-0.0471,-0.045,-0.0455,-0.0504,-0.0509,-0.0513,-0.0482,-0.0543,-0.0544,-0.0545,-0.0519,-0.0517,-0.0516,0,0,0,0,0,0,-0.041,-0.0405,-0.0382,-0.0401,-0.0399,-0.0428,-0.0414,-0.0421,-0.0428,-0.0465,-0.0474,-0.0452,-0.0506,-0.0512,-0.0507,-0.0485,-0.0544,-0.0545,-0.052,-0.0518,-0.0517,-0.0412,0,0,0,0,0,0,-0.0411,-0.0405,-0.0395,-0.0399,-0.0398,-0.0366,-0.0412,-0.0419,-0.0424,-0.0431,-0.0468,-0.0477,-0.0508,-0.0506,-0.0508,-0.0487,-0.0546,-0.0522,-0.0519,-0.0517,-0.0417,-0.0407,-0.0399,0,0,0,0,0,-0.0412,-0.039,-0.0394,-0.039,-0.0381,-0.0365,-0.0366,-0.0396,-0.0421,-0.0413,-0.0437,-0.0476,-0.0495,-0.0504,-0.0508,-0.0487,-0.0523,-0.052,-0.0518,-0.0421,-0.0409,-0.0399,0,0,0,0,0,0,-0.0401,-0.0395,-0.0399,-0.0375,-0.0367,-0.0376,-0.0371,-0.0386,-0.0397,-0.0405,-0.045,-0.0458,-0.0451,-0.0477,-0.0488,-0.0475,-0.0519,-0.0517,-0.0445,-0.0434,-0.0425,-0.0411,-0.0546,0,0,0,0,0,-0.039,-0.0378,-0.0369,-0.0349,-0.0341,-0.0352,-0.0351,-0.0362,-0.0371,-0.0379,-0.0405,-0.043,-0.0438,-0.0444,-0.0459,-0.0437,-0.0463,-0.0431,-0.0421,-0.0413,-0.0405,-0.0417,-0.0408,-0.0507,-0.0507,-0.0508,0,0,-0.038,-0.0375,-0.0368,-0.0347,-0.0344,-0.0319,-0.0357,-0.0342,-0.0325,-0.0381,-0.0372,-0.0395,-0.0425,-0.041,-0.041,-0.0431,-0.0395,-0.041,-0.0402,-0.0399,-0.0414,-0.0404,-0.0395,-0.0506,-0.0506,-0.0506,0,0,-0.0354,-0.0344,-0.0326,-0.0311,-0.0296,-0.0294,-0.0285,-0.0284,-0.0289,-0.0269,-0.0311,-0.0312,-0.033,-0.0341,-0.035,-0.0293,-0.0347,-0.0309,-0.0247,-0.0258,-0.025,-0.0243,-0.0249,-0.0243,-0.0303,-0.0303,-0.0302,0,-0.0344,-0.0314,-0.0316,-0.0289,-0.0272,-0.0278,-0.0244,-0.0237,-0.0237,-0.0225,-0.0257,-0.0266,-0.0293,-0.0269,-0.0255,-0.0271,-0.029,-0.0284,-0.0245,-0.0239,-0.0234,-0.0241,-0.0237,-0.0297,-0.0298,-0.0298,-0.0299,0,-0.0305,-0.0276,-0.0258,-0.0226,-0.0205,-0.0174,-0.0158,-0.0139,-0.0145,-0.0141,-0.0123,-0.0153,-0.0164,-0.0169,-0.0194,-0.0166,-0.0195,-0.0231,-0.027,-0.0217,-0.0229,-0.0226,-0.029,-0.0292,-0.0293,-0.0294,0,0,-0.0296,-0.0243,-0.0239,-0.0205,-0.0168,-0.0141,-0.0098,-0.0056,-0.0023,-0.003,0.0002,-0.0007,-0.0033,-0.0045,-0.0079,-0.0083,-0.0058,-0.0136,-0.0139,-0.0136,-0.008,-0.0091,-0.0089,-0.0092,-0.0092,-0.0091,-0.0098,0,-0.0264,-0.0203,-0.0187,-0.0117,-0.0073,-0.0055,-0.0011,0.0026,0.0044,0.0074,0.0057,0.0065,0.0016,0.0009,0.0003,-0.0045,-0.0048,-0.0052,-0.0138,-0.014,-0.0151,-0.0085,-0.0046,-0.0048,-0.0095,-0.0095,-0.0095,0,-0.0229,-0.0191,-0.0121,-0.0044,-0.0025,0.0013,0.0087,0.0125,0.0172,0.0179,0.0188,0.0163,0.0165,0.0102,0.0064,0.0059,0.0,-0.0039,-0.0041,-0.0086,-0.0145,-0.0113,-0.0042,-0.018,-0.0091,-0.0091,-0.0091,0,-0.0208,-0.014,-0.0082,-0.0057,0.0024,0.006,0.0098,0.0159,0.0203,0.0238,0.0266,0.0253,0.0248,0.0182,0.0107,0.0078,0.0061,0.0003,-0.0057,-0.0059,-0.006,-0.0063,-0.0126,-0.0027,-0.0027,-0.0027,-0.0027,0,-0.0167,-0.0116,-0.0069,-0.0027,0.0042,0.0088,0.0165,0.0203,0.0265,0.0338,0.0312,0.0359,0.0265,0.0243,0.015,0.0076,0.0091,-0.0026,-0.0054,-0.0021,-0.0021,-0.0171,-0.0238,-0.0028,-0.0028,-0.0028,-0.0028,0,-0.0134,-0.0102,-0.0026,0.0045,0.0063,0.0116,0.0196,0.0256,0.0308,0.0398,0.0409,0.0439,0.0425,0.0337,0.0248,0.0141,0.0001,0.0019,0.0071,0.005,-0.0155,-0.0217,-0.0298,-0.0329,-0.0052,-0.0052,-0.0052,0,-0.0108,-0.007,0.0008,0.0047,0.008,0.0148,0.0198,0.0264,0.0333,0.0461,0.0513,0.0536,0.0588,0.0467,0.0291,0.0145,0.0028,0.0048,-0.0005,-0.014,-0.023,-0.0286,-0.031,0.0039,0.004,0.004,0.0041,0,-0.0066,-0.0043,0.0016,0.009,0.0145,0.0216,0.0296,0.036,0.0464,0.057,0.0727,0.0787,0.0683,0.0596,0.0373,0.0237,-0.0022,0.0051,-0.0098,-0.016,-0.0214,-0.0266,0.0012,0.0045,0.0045,0.0044,0.0044,0.0044,-0.0049,-0.0003,0.0066,0.0141,0.021,0.0313,0.0402,0.0509,0.0663,0.0891,0.0916,0.1096,0.0873,0.0595,0.0377,-0.0008,-0.0012,-0.012,-0.018,-0.0223,-0.026,0.0031,0.0031,0.003,0.003,0.0029,0.0029,0,-0.0029,0.0031,0.0109,0.0226,0.0327,0.035,0.0495,0.0622,0.0842,0.1063,0.1252,0.1301,0.1021,0.0673,0.0145,-0.0167,-0.029,-0.0332,-0.0405,-0.0417,-0.0163,-0.0168,-0.02,-0.0199,-0.0199,-0.0199,-0.0199,-0.0199,-0.0016,0.0064,0.0122,0.0309,0.04,0.0563,0.0666,0.0864,0.1059,0.14,0.1591,0.1686,0.1415,0.0432,-0.0228,-0.0398,-0.0603,-0.0646,-0.075,-0.0599,-0.0585,-0.0571,-0.0594,-0.0714,-0.0714,-0.0958,-0.0961,-0.0963]}],[{"header":{"parameterUnit":"m.s-1","parameterCategory":2,"la1":30.2991,"la2":30.254,"lo1":-89.0895,"lo2":-89.0444,"dy":0.0017,"dx":0.0017,"nx":28,"ny":28,"refTime":"2023-08-07T21:00:00:Z","depth":"2","parameterNumber":2,"parameterNumberName":"U-component_of_CURRENTS"},"data":[0,0,0,0,0,0,0,0,0,0,0,0,0,0,0,0,0,0,0,0,0,0,0,0,0,0,0,0,0,0,0,0,0,0,0,0,0,0,0,0,0,0,0,0,0,0,0,0,0,0,0,0,0,0,0,0,0,0,0.0656,0.0657,0,0.0794,0.0796,0.0798,0.098,0.0983,0.0985,0.0987,0.119,0.1193,0.1196,0,0,0,0,0,0,0,0,0,0,0,0,0,0.0509,0.0511,0.0656,0.0657,0.0659,0.0794,0.0796,0.0799,0.098,0.0983,0.0986,0.0989,0.1189,0.1192,0.1196,0,0,0,0,0,0,0,0,0,0,0,0,0,0.0608,0.0512,0.0656,0.0761,0.0771,0.0793,0.0796,0.0799,0.0979,0.0983,0.0987,0.099,0.1187,0.1192,0.1197,0.1152,0,0,0.1211,0.1213,0,0,0,0,0,0,0,0,0.0602,0.0614,0.0744,0.0754,0.0765,0.0868,0.0818,0.0918,0.0978,0.0907,0.0987,0.0992,0.1081,0.1095,0.1121,0.1162,0.117,0.1211,0.1214,0.1216,0.1217,0,0,0,0,0,0,0,0.0595,0.0609,0.0717,0.0745,0.0758,0.0786,0.0805,0.0838,0.0978,0.0913,0.0925,0.0929,0.1089,0.1116,0.1127,0.1173,0.1211,0.1215,0.1218,0.122,0.1387,0.1388,0,0,0,0,0,0,0.0564,0.0602,0.0713,0.0721,0.0684,0.0785,0.0807,0.0837,0.0976,0.0999,0.0926,0.0937,0.1106,0.1121,0.1135,0.1302,0.1216,0.122,0.1223,0.1385,0.1387,0.1389,0,0,0,0,0,0,0.0561,0.0574,0.0707,0.0658,0.0677,0.0784,0.0815,0.0837,0.0914,0.0984,0.1011,0.0986,0.1109,0.1128,0.1272,0.1303,0.1223,0.1227,0.1383,0.1386,0.1388,0.1499,0,0,0,0,0,0,0.0557,0.0572,0.0616,0.0657,0.0678,0.0755,0.0812,0.0837,0.0905,0.0923,0.1042,0.1063,0.1114,0.1265,0.1277,0.1308,0.123,0.1381,0.1384,0.1387,0.1494,0.1505,0.1515,0,0,0,0,0,0.0551,0.0593,0.0618,0.0632,0.0725,0.0755,0.077,0.086,0.0904,0.0944,0.1073,0.1062,0.129,0.1273,0.1285,0.1318,0.138,0.1383,0.1387,0.1489,0.1503,0.1515,0,0,0,0,0,0,0.0624,0.0615,0.0644,0.0705,0.0738,0.0784,0.0844,0.087,0.0995,0.1043,0.1113,0.1144,0.1252,0.1272,0.125,0.1369,0.1317,0.1324,0.139,0.1404,0.1414,0.1414,0.1234,0,0,0,0,0,0.0634,0.0625,0.0656,0.0709,0.0735,0.0787,0.0823,0.0866,0.0955,0.1015,0.1096,0.1187,0.126,0.1333,0.1377,0.1471,0.1487,0.1487,0.1497,0.1507,0.1513,0.1572,0.1589,0.1401,0.1401,0.1401,0,0,0.0679,0.067,0.0679,0.0714,0.0765,0.081,0.0825,0.0885,0.0943,0.1012,0.1161,0.1215,0.1285,0.1398,0.1445,0.1441,0.1578,0.1512,0.152,0.152,0.1578,0.1596,0.1613,0.1403,0.1403,0.1403,0,0,0.0722,0.0765,0.0765,0.0787,0.0827,0.0855,0.0871,0.0934,0.1004,0.1122,0.1181,0.1281,0.14,0.1468,0.1513,0.16,0.1607,0.1599,0.1697,0.1755,0.1771,0.1786,0.1873,0.1894,0.1638,0.1638,0.1638,0,0.0776,0.0797,0.0783,0.0803,0.0844,0.0876,0.0929,0.0985,0.109,0.1159,0.1191,0.1383,0.1427,0.1569,0.162,0.1623,0.1678,0.1651,0.1772,0.1786,0.1799,0.1884,0.1906,0.1644,0.1643,0.1643,0.1642,0,0.0824,0.0853,0.0873,0.0894,0.0935,0.0985,0.104,0.1112,0.119,0.1248,0.1399,0.1491,0.1618,0.1625,0.1672,0.1783,0.1802,0.1754,0.1743,0.1825,0.1909,0.193,0.1652,0.165,0.1648,0.1647,0,0,0.0946,0.0893,0.0944,0.0931,0.0989,0.1024,0.1128,0.1226,0.132,0.1425,0.1561,0.1683,0.1738,0.1789,0.1834,0.1898,0.2043,0.1898,0.1898,0.1993,0.2228,0.2104,0.2115,0.2041,0.2044,0.2047,0.2266,0,0.1013,0.1026,0.1018,0.1086,0.109,0.1143,0.1238,0.1331,0.1432,0.1567,0.1663,0.1799,0.18,0.1892,0.196,0.2009,0.2099,0.1991,0.2125,0.2129,0.2015,0.2133,0.1939,0.2105,0.2286,0.229,0.2292,0,0.112,0.1081,0.1137,0.1118,0.1154,0.1223,0.1383,0.1482,0.1648,0.1718,0.1867,0.1936,0.2092,0.2045,0.2223,0.2173,0.2223,0.2243,0.2251,0.2104,0.2042,0.2042,0.2135,0.2327,0.2324,0.2321,0.2319,0,0.1225,0.12,0.1232,0.124,0.124,0.132,0.1409,0.1566,0.1671,0.1856,0.1931,0.2101,0.2216,0.2297,0.239,0.233,0.2555,0.2462,0.2402,0.2396,0.2234,0.2205,0.257,0.257,0.257,0.2569,0.2568,0,0.1306,0.1368,0.1271,0.1313,0.1368,0.1401,0.1577,0.1658,0.1822,0.195,0.2054,0.2166,0.2283,0.2424,0.2467,0.2537,0.2639,0.2446,0.2445,0.2268,0.2242,0.2409,0.2388,0.2577,0.2575,0.2574,0.2572,0,0.1457,0.1426,0.1428,0.141,0.1414,0.1512,0.1654,0.1735,0.1903,0.2068,0.2133,0.228,0.2469,0.2584,0.2732,0.2631,0.2698,0.2695,0.2498,0.2464,0.2479,0.2461,0.2623,0.262,0.2618,0.2616,0.2615,0,0.154,0.1519,0.1499,0.148,0.1488,0.1595,0.1633,0.179,0.1868,0.2129,0.2172,0.2418,0.2517,0.2703,0.2651,0.2716,0.2802,0.2502,0.2287,0.2503,0.2487,0.2471,0.2456,0.2163,0.2158,0.2153,0.215,0,0.159,0.1602,0.1546,0.1529,0.1545,0.1579,0.1671,0.1739,0.1931,0.2042,0.2233,0.2351,0.2504,0.2458,0.2497,0.2486,0.2457,0.2407,0.275,0.2134,0.2074,0.2055,0.2055,0.2113,0.2117,0.2119,0.2121,0.2123,0.1595,0.1584,0.1514,0.1487,0.1514,0.1574,0.1654,0.1714,0.1872,0.2049,0.2167,0.2247,0.2143,0.2092,0.2104,0.215,0.224,0.2099,0.2111,0.2128,0.199,0.1923,0.1914,0.1916,0.1919,0.192,0.1922,0,0.1465,0.1514,0.1462,0.147,0.1504,0.1577,0.1639,0.1691,0.1857,0.1919,0.207,0.1763,0.171,0.1794,0.1745,0.1648,0.1633,0.1651,0.1626,0.1662,0.1694,0.1533,0.1338,0.1336,0.1335,0.1334,0,0,0.1438,0.1404,0.1383,0.1427,0.1496,0.1558,0.1633,0.1714,0.1752,0.1735,0.1719,0.1666,0.1634,0.138,0.1353,0.1405,0.154,0.1372,0.1835,0.1842,0.1874,0.1938,0.1728,0,0,0,0,0]},{"header":{"parameterUnit":"m.s-1","parameterCategory":2,"la1":30.2991,"la2":30.254,"lo1":-89.0895,"lo2":-89.0444,"dy":0.0017,"dx":0.0017,"nx":28,"ny":28,"refTime":"2023-08-07T21:00:00:Z","depth":"2","parameterNumber":3,"parameterNumberName":"V-component_of_CURRENTS"},"data":[0,0,0,0,0,0,0,0,0,0,0,0,0,0,0,0,0,0,0,0,0,0,0,0,0,0,0,0,0,0,0,0,0,0,0,0,0,0,0,0,0,0,0,0,0,0,0,0,0,0,0,0,0,0,0,0,0,0,0.0152,0.0151,0,0.003,0.0028,0.0026,-0.0151,-0.0154,-0.0156,-0.0159,-0.0389,-0.0393,-0.0397,0,0,0,0,0,0,0,0,0,0,0,0,0,0.0188,0.0188,0.0152,0.0151,0.015,0.003,0.0028,0.0025,-0.0151,-0.0154,-0.0157,-0.016,-0.0388,-0.0392,-0.0397,0,0,0,0,0,0,0,0,0,0,0,0,0,0.0124,0.0188,0.0152,0.0053,0.0043,0.003,0.0028,0.0025,-0.015,-0.0154,-0.0158,-0.0161,-0.0386,-0.0392,-0.0398,-0.0359,0,0,-0.0415,-0.0418,0,0,0,0,0,0,0,0,0.0128,0.0122,0.0068,0.006,0.0049,-0.0044,-0.0044,-0.0107,-0.0149,-0.0084,-0.0159,-0.0163,-0.0276,-0.0291,-0.0314,-0.037,-0.038,-0.0416,-0.0419,-0.0422,-0.0423,0,0,0,0,0,0,0,0.0133,0.0126,0.0097,0.0068,0.0056,-0.0001,-0.0014,-0.0057,-0.0165,-0.009,-0.0101,-0.0103,-0.0284,-0.0308,-0.0321,-0.0384,-0.0416,-0.0421,-0.0424,-0.0427,-0.0544,-0.0543,0,0,0,0,0,0,0.0168,0.0131,0.0101,0.0094,0.0088,0.0003,-0.0013,-0.0016,-0.0163,-0.0186,-0.01,-0.0111,-0.0297,-0.0314,-0.033,-0.0346,-0.0422,-0.0427,-0.043,-0.0544,-0.0544,-0.0543,0,0,0,0,0,0,0.0169,0.0167,0.0106,0.0114,0.0103,0.0007,0.0005,-0.0016,-0.0059,-0.0168,-0.0196,-0.0124,-0.03,-0.0322,-0.0406,-0.0355,-0.043,-0.0435,-0.0544,-0.0544,-0.0543,-0.0344,0,0,0,0,0,0,0.0171,0.0168,0.016,0.0117,0.0105,0.0111,0.0008,-0.0015,-0.005,-0.0067,-0.0196,-0.0221,-0.0305,-0.0397,-0.0412,-0.0364,-0.0439,-0.0545,-0.0544,-0.0544,-0.0351,-0.0337,-0.0324,0,0,0,0,0,0.0172,0.0191,0.0161,0.0156,0.0103,0.0113,0.0102,0.0015,-0.0047,-0.0044,-0.0166,-0.0218,-0.0403,-0.0401,-0.0419,-0.0371,-0.0545,-0.0544,-0.0544,-0.0357,-0.0339,-0.0325,0,0,0,0,0,0,0.0179,0.0174,0.0139,0.0146,0.0136,0.0086,0.0066,0.0029,-0.006,-0.0099,-0.0216,-0.0248,-0.0297,-0.037,-0.0365,-0.0409,-0.048,-0.0482,-0.0332,-0.0316,-0.0303,-0.0258,-0.0444,0,0,0,0,0,0.0191,0.0215,0.0191,0.0199,0.0186,0.0129,0.0113,0.0076,0.0007,-0.0037,-0.0123,-0.0227,-0.0297,-0.034,-0.0412,-0.043,-0.0481,-0.0415,-0.0402,-0.039,-0.0369,-0.0418,-0.0405,-0.0541,-0.0541,-0.0541,0,0,0.0189,0.0199,0.02,0.0206,0.0168,0.0193,0.0106,0.0101,0.0121,-0.0044,-0.0081,-0.0178,-0.0296,-0.0329,-0.0355,-0.0389,-0.0375,-0.0389,-0.0377,-0.0363,-0.0416,-0.0402,-0.039,-0.054,-0.054,-0.054,0,0,0.0242,0.0208,0.0249,0.0257,0.0251,0.0232,0.0242,0.0201,0.0163,0.0136,0.0016,-0.0052,-0.016,-0.0221,-0.0271,-0.0224,-0.0302,-0.0253,-0.0144,-0.019,-0.0179,-0.0169,-0.019,-0.0183,-0.0246,-0.0246,-0.0245,0,0.0224,0.0287,0.0261,0.0311,0.032,0.0262,0.0306,0.0287,0.0231,0.0213,0.0141,-0.001,-0.0097,-0.0133,-0.0128,-0.0183,-0.0232,-0.0185,-0.0167,-0.0159,-0.0153,-0.0177,-0.0173,-0.0236,-0.0237,-0.0238,-0.0239,0,0.0322,0.0359,0.038,0.0429,0.0444,0.0473,0.0459,0.046,0.0405,0.0375,0.0319,0.0187,0.0088,0.0068,-0.002,-0.001,-0.0065,-0.0138,-0.0191,-0.0126,-0.0157,-0.0156,-0.0222,-0.0226,-0.0228,-0.0231,0,0,0.0265,0.0421,0.04,0.0463,0.0506,0.0524,0.0577,0.0595,0.0609,0.054,0.0539,0.0428,0.0334,0.027,0.0162,0.0133,0.0151,0.0026,0.0019,0.0037,0.0059,0.0056,0.0056,0.0069,0.007,0.0071,0.0029,0,0.0318,0.0453,0.051,0.0612,0.0677,0.0677,0.0728,0.0742,0.0718,0.0706,0.0593,0.0525,0.0416,0.0348,0.0313,0.0175,0.0156,0.017,-0.0036,-0.0041,-0.0026,0.0058,0.0024,-0.0014,0.003,0.003,0.003,0,0.0367,0.0461,0.0577,0.0731,0.0741,0.0779,0.083,0.0862,0.0858,0.0847,0.0786,0.0682,0.0613,0.0498,0.0351,0.0354,0.0232,0.0141,0.0135,0.0065,-0.0041,-0.0084,-0.0015,0.003,0.003,0.003,0.003,0,0.0329,0.0496,0.0593,0.0635,0.0784,0.0804,0.0826,0.0862,0.0893,0.0884,0.0906,0.0809,0.0719,0.0585,0.0392,0.0356,0.0242,0.0158,0.0058,0.0056,-0.0045,-0.0057,0.0078,0.0078,0.0078,0.0078,0.0078,0,0.037,0.0429,0.0571,0.06,0.0703,0.0768,0.0818,0.0867,0.0906,0.0955,0.091,0.0941,0.0729,0.0632,0.046,0.0281,0.0283,0.0112,0.0054,0.0024,0.002,-0.0017,-0.0028,0.0077,0.0077,0.0077,0.0078,0,0.0332,0.0414,0.0535,0.0659,0.0694,0.0719,0.0804,0.086,0.0899,0.0965,0.0959,0.0998,0.0891,0.0708,0.0497,0.0358,0.0192,0.012,0.0122,0.0067,0.0024,0.0023,0.0023,0.0023,0.0023,0.0023,0.0023,0,0.0341,0.0403,0.0535,0.0588,0.0629,0.0684,0.0749,0.0823,0.0892,0.1015,0.1061,0.1015,0.1045,0.0793,0.0495,0.0236,0.0197,0.0058,-0.0005,0.008,0.0022,0.0022,0.0022,-0.0061,-0.0062,-0.0063,-0.0063,0,0.0358,0.0375,0.0474,0.0583,0.0642,0.0753,0.082,0.0898,0.0993,0.1118,0.1272,0.1312,0.1071,0.0818,0.046,0.0285,0.0104,0.0039,0.0112,-0.003,-0.0001,-0.0057,-0.0054,-0.0069,-0.0069,-0.0068,-0.0068,-0.0068,0.0344,0.0406,0.0503,0.062,0.0692,0.0801,0.0884,0.1015,0.1169,0.1334,0.1385,0.141,0.1029,0.0556,0.0305,0.005,0.0058,-0.0061,-0.006,-0.0057,-0.0048,-0.0019,-0.0088,-0.0088,-0.0087,-0.0087,-0.0086,0,0.0404,0.0429,0.0542,0.0666,0.0751,0.078,0.0951,0.1073,0.1276,0.1378,0.1504,0.1151,0.0868,0.0514,0.0115,-0.0106,-0.013,-0.0156,-0.017,-0.0163,-0.0158,-0.0154,-0.0222,-0.0223,-0.0223,-0.0224,0,0,0.0401,0.0479,0.0559,0.0691,0.0761,0.0905,0.1001,0.1202,0.1307,0.1457,0.1407,0.1248,0.0829,0.0448,0.0142,-0.0005,-0.0012,-0.003,0.0095,0.0122,0.0131,-0.0097,-0.0082,0,0,0,0,0]}],[{"header":{"parameterUnit":"m.s-1","parameterCategory":2,"la1":30.2991,"la2":30.254,"lo1":-89.0895,"lo2":-89.0444,"dy":0.0017,"dx":0.0017,"nx":28,"ny":28,"refTime":"2023-08-07T21:00:00:Z","depth":"4","parameterNumber":2,"parameterNumberName":"U-component_of_CURRENTS"},"data":[0,0,0,0,0,0,0,0,0,0,0,0,0,0,0,0,0,0,0,0,0,0,0,0,0,0,0,0,0,0,0,0,0,0,0,0,0,0,0,0,0,0,0,0,0,0,0,0,0,0,0,0,0,0,0,0,0,0,-0.0276,-0.0277,0,-0.0314,-0.0314,-0.0314,-0.0359,-0.036,-0.036,-0.0361,-0.0446,-0.0447,-0.0449,0,0,0,0,0,0,0,0,0,0,0,0,0,-0.0214,-0.0215,-0.0276,-0.0277,-0.0277,-0.0314,-0.0314,-0.0314,-0.0358,-0.036,-0.0361,-0.0362,-0.0445,-0.0447,-0.0449,0,0,0,0,0,0,0,0,0,0,0,0,0,-0.0243,-0.0215,-0.0276,-0.0306,-0.0309,-0.0314,-0.0314,-0.0315,-0.0358,-0.036,-0.0361,-0.0362,-0.0445,-0.0447,-0.0449,-0.0434,0,0,-0.0455,-0.0456,0,0,0,0,0,0,0,0,-0.0241,-0.0245,-0.0301,-0.0304,-0.0307,-0.0335,-0.0324,-0.0358,-0.0358,-0.0337,-0.0361,-0.0363,-0.0414,-0.0419,-0.0418,-0.0438,-0.0442,-0.0455,-0.0457,-0.0458,-0.0458,0,0,0,0,0,0,0,-0.0239,-0.0243,-0.0288,-0.0301,-0.0306,-0.0308,-0.0314,-0.033,-0.0366,-0.0339,-0.0343,-0.0351,-0.0416,-0.0416,-0.0421,-0.0443,-0.0455,-0.0457,-0.0459,-0.0459,-0.0575,-0.0577,0,0,0,0,0,0,-0.024,-0.0241,-0.0287,-0.029,-0.028,-0.0308,-0.0314,-0.0323,-0.0365,-0.0373,-0.0349,-0.0353,-0.0412,-0.0418,-0.0424,-0.0531,-0.0458,-0.046,-0.0461,-0.0573,-0.0576,-0.0578,0,0,0,0,0,0,-0.0238,-0.0244,-0.0286,-0.0269,-0.0275,-0.0309,-0.0317,-0.0323,-0.0369,-0.0373,-0.0382,-0.0395,-0.0413,-0.0421,-0.0472,-0.053,-0.046,-0.0462,-0.0571,-0.0574,-0.0577,-0.0667,0,0,0,0,0,0,-0.0236,-0.0243,-0.0258,-0.0269,-0.0276,-0.0308,-0.0316,-0.0323,-0.037,-0.0376,-0.0414,-0.0421,-0.0415,-0.0469,-0.0474,-0.0532,-0.0464,-0.0569,-0.0573,-0.0576,-0.0662,-0.0673,-0.0682,0,0,0,0,0,-0.0234,-0.0249,-0.0258,-0.0265,-0.0292,-0.0309,-0.0313,-0.0339,-0.0371,-0.0387,-0.0422,-0.0422,-0.0495,-0.0472,-0.0477,-0.0537,-0.0567,-0.0572,-0.0576,-0.0658,-0.0671,-0.0682,0,0,0,0,0,0,-0.023,-0.0255,-0.0266,-0.0288,-0.0306,-0.0318,-0.0345,-0.0365,-0.0404,-0.0432,-0.0438,-0.0446,-0.0518,-0.0508,-0.0483,-0.058,-0.0534,-0.054,-0.0595,-0.0607,-0.0617,-0.0587,-0.0466,0,0,0,0,0,-0.0234,-0.0259,-0.0274,-0.0297,-0.0313,-0.0339,-0.0358,-0.038,-0.0409,-0.0431,-0.0461,-0.0496,-0.053,-0.0554,-0.0577,-0.0623,-0.059,-0.0666,-0.0677,-0.0685,-0.0665,-0.0669,-0.0677,-0.0591,-0.0591,-0.0591,0,0,-0.0241,-0.0259,-0.0274,-0.0299,-0.0324,-0.0341,-0.0355,-0.0402,-0.043,-0.0434,-0.0503,-0.0538,-0.0551,-0.0608,-0.064,-0.0614,-0.0695,-0.069,-0.0698,-0.0672,-0.0674,-0.0682,-0.069,-0.0594,-0.0593,-0.0593,0,0,-0.026,-0.0287,-0.0312,-0.0327,-0.0371,-0.0378,-0.0403,-0.0444,-0.0483,-0.0538,-0.0561,-0.0623,-0.0672,-0.0691,-0.0705,-0.078,-0.0753,-0.0809,-0.0835,-0.0841,-0.0848,-0.0853,-0.083,-0.0832,-0.081,-0.081,-0.081,0,-0.0266,-0.0293,-0.0321,-0.0343,-0.0364,-0.0401,-0.0427,-0.0458,-0.0515,-0.0551,-0.0575,-0.0675,-0.0703,-0.0759,-0.0792,-0.0805,-0.0789,-0.0791,-0.0853,-0.0857,-0.0861,-0.0836,-0.0837,-0.0815,-0.0814,-0.0814,-0.0813,0,-0.0295,-0.0319,-0.0341,-0.0376,-0.0401,-0.0434,-0.0473,-0.0524,-0.0585,-0.0613,-0.071,-0.0751,-0.0799,-0.0841,-0.0842,-0.09,-0.0874,-0.087,-0.0819,-0.0875,-0.0845,-0.0845,-0.0822,-0.082,-0.0819,-0.0817,0,0,-0.0302,-0.0347,-0.0361,-0.0369,-0.0425,-0.0439,-0.0507,-0.0558,-0.0606,-0.0684,-0.0742,-0.0832,-0.0865,-0.0881,-0.0913,-0.0929,-0.0964,-0.0916,-0.0915,-0.0886,-0.0958,-0.0766,-0.0746,-0.0977,-0.0978,-0.0978,-0.0929,0,-0.0318,-0.0343,-0.0379,-0.041,-0.042,-0.0477,-0.0528,-0.0588,-0.0651,-0.0713,-0.0784,-0.0847,-0.0876,-0.092,-0.0945,-0.0958,-0.0966,-0.0975,-0.0912,-0.0909,-0.0726,-0.0741,-0.0979,-0.0929,-0.0928,-0.0928,-0.0928,0,-0.0344,-0.0346,-0.0381,-0.0412,-0.0431,-0.0472,-0.0556,-0.0608,-0.0699,-0.0753,-0.0825,-0.086,-0.0916,-0.0932,-0.096,-0.0966,-0.0964,-0.0967,-0.0965,-0.0743,-0.0714,-0.0859,-0.0927,-0.0927,-0.0927,-0.0927,-0.0927,0,-0.0325,-0.0354,-0.0377,-0.0389,-0.0435,-0.0495,-0.0546,-0.0641,-0.0679,-0.0781,-0.08,-0.0876,-0.0902,-0.0928,-0.0927,-0.0953,-0.0926,-0.0958,-0.0777,-0.0764,-0.0914,-0.0908,-0.096,-0.096,-0.0961,-0.0961,-0.0961,0,-0.0318,-0.0339,-0.0375,-0.0385,-0.0419,-0.049,-0.0562,-0.0627,-0.0712,-0.0699,-0.0819,-0.0786,-0.0902,-0.0889,-0.0911,-0.081,-0.0907,-0.0756,-0.0731,-0.0955,-0.0955,-0.0913,-0.0908,-0.0959,-0.0959,-0.096,-0.096,0,-0.0313,-0.0334,-0.0348,-0.0398,-0.0414,-0.0459,-0.054,-0.0571,-0.0672,-0.0654,-0.0673,-0.0725,-0.067,-0.0739,-0.0754,-0.0742,-0.0704,-0.0648,-0.0851,-0.0843,-0.0549,-0.055,-0.0444,-0.0436,-0.043,-0.0425,-0.042,0,-0.0307,-0.0319,-0.0349,-0.0337,-0.0372,-0.0429,-0.0455,-0.0554,-0.0541,-0.0546,-0.0491,-0.048,-0.0477,-0.0381,-0.0461,-0.0471,-0.047,-0.0486,-0.0547,-0.0506,-0.0494,-0.0504,-0.0514,-0.0411,-0.0409,-0.0407,-0.0406,0,-0.0291,-0.0332,-0.0337,-0.0306,-0.0319,-0.0309,-0.0333,-0.0319,-0.0362,-0.041,-0.0283,-0.0264,-0.0182,-0.0212,-0.0228,-0.0239,-0.0505,-0.0421,-0.0436,-0.0494,-0.0465,-0.0461,-0.0477,-0.0384,-0.0387,-0.0389,-0.039,0,-0.0294,-0.029,-0.0297,-0.0273,-0.0246,-0.0198,-0.023,-0.0171,-0.018,-0.0164,-0.0075,-0.0075,-0.0094,-0.0078,-0.0069,-0.0079,-0.0087,-0.0143,-0.0173,-0.0197,-0.0141,-0.007,0.018,0,0,0,0,0,-0.0274,-0.0272,-0.0242,-0.02,-0.0164,-0.0152,-0.0126,-0.015,-0.014,-0.0008,-0.0052,0.0051,0.0088,0.0069,0.0109,0.0032,-0.0117,0.0077,-0.0205,-0.0264,-0.0289,-0.0247,0,0,0,0,0,0,-0.0253,-0.0256,-0.0239,-0.0144,-0.0097,-0.0052,-0.0042,-0.0037,0.0031,0.0045,0.006,0.0081,0.0093,0.0079,0.0118,0.0115,-0.0053,0.008,0.0082,-0.0249,-0.0272,-0.0292,-0.0258,0,0,0,0,0]},{"header":{"parameterUnit":"m.s-1","parameterCategory":2,"la1":30.2991,"la2":30.254,"lo1":-89.0895,"lo2":-89.0444,"dy":0.0017,"dx":0.0017,"nx":28,"ny":28,"refTime":"2023-08-07T21:00:00:Z","depth":"4","parameterNumber":3,"parameterNumberName":"V-component_of_CURRENTS"},"data":[0,0,0,0,0,0,0,0,0,0,0,0,0,0,0,0,0,0,0,0,0,0,0,0,0,0,0,0,0,0,0,0,0,0,0,0,0,0,0,0,0,0,0,0,0,0,0,0,0,0,0,0,0,0,0,0,0,0,-0.0011,-0.0011,0,-0.001,-0.001,-0.0009,0.0053,0.0054,0.0056,0.0057,0.008,0.0079,0.0078,0,0,0,0,0,0,0,0,0,0,0,0,0,0.0032,0.0031,-0.0011,-0.0011,-0.0011,-0.001,-0.001,-0.0009,0.0052,0.0054,0.0056,0.0058,0.008,0.0079,0.0078,0,0,0,0,0,0,0,0,0,0,0,0,0,0.0022,0.0031,-0.0011,0.0019,0.0022,-0.001,-0.001,-0.0009,0.0052,0.0054,0.0057,0.0059,0.0081,0.0079,0.0078,0.0025,0,0,0.0074,0.0074,0,0,0,0,0,0,0,0,0.0023,0.0021,0.0015,0.0017,0.002,0.0023,0.0014,0.0003,0.0051,0.0041,0.0057,0.006,0.006,0.0061,0.0057,0.0026,0.0027,0.0074,0.0074,0.0073,0.0073,0,0,0,0,0,0,0,0.0023,0.0021,-0.001,0.0014,0.0018,0.003,0.0031,0.0012,0.0039,0.0042,0.0047,0.0045,0.0063,0.0058,0.0058,0.0027,0.0074,0.0073,0.0072,0.0072,0.0013,0.0012,0,0,0,0,0,0,0.0019,0.0021,-0.001,-0.001,0.0026,0.0027,0.0029,0.002,0.0039,0.0044,0.0043,0.0048,0.0059,0.006,0.0059,0.0058,0.0073,0.0072,0.0071,0.0014,0.0013,0.0012,0,0,0,0,0,0,0.0019,0.0016,-0.001,0.0006,0.0004,0.0024,0.0014,0.0019,0.0035,0.0039,0.0045,0.0056,0.0061,0.0061,0.0053,0.0057,0.0071,0.007,0.0015,0.0013,0.0012,0.0015,0,0,0,0,0,0,0.0021,0.0016,0.0009,0.0005,0.0002,-0.0031,0.0012,0.0017,0.0029,0.0036,0.0051,0.0055,0.0063,0.0055,0.0052,0.0056,0.0069,0.0016,0.0014,0.0013,0.0016,0.0014,0.0013,0,0,0,0,0,0.0022,-0.0004,0.0009,0.0006,-0.0008,-0.0033,-0.0034,-0.001,0.0027,0.0017,0.0039,0.0056,0.0044,0.0053,0.005,0.0053,0.0017,0.0015,0.0013,0.0017,0.0015,0.0013,0,0,0,0,0,0,0.0012,-0.0,0.0014,-0.0013,-0.002,-0.0022,-0.003,-0.0008,-0.0,0.0017,0.0037,0.004,0.0036,0.0033,0.0043,0.0029,0.0035,0.0032,0.0039,0.0037,0.0035,0.0024,0.0068,0,0,0,0,0,0.0005,-0.0015,-0.0022,-0.0042,-0.0046,-0.0034,-0.0037,-0.0021,-0.0016,-0.0008,0.0009,0.002,0.0018,0.0022,0.0014,-0.0002,-0.0001,-0.0002,-0.0003,-0.0005,-0.0018,-0.0015,-0.0017,0.0006,0.0006,0.0006,0,0,-0.0004,-0.0014,-0.0024,-0.0045,-0.0045,-0.0073,-0.0029,-0.0039,-0.0056,-0.0011,-0.0018,0.001,0.001,0.0002,0.0,0.0007,-0.001,-0.0007,-0.0008,-0.0021,-0.0017,-0.0019,-0.002,0.0004,0.0005,0.0005,0,0,-0.004,-0.0041,-0.0068,-0.0084,-0.0091,-0.0093,-0.0094,-0.0088,-0.0077,-0.0085,-0.005,-0.003,-0.003,-0.0028,-0.0027,-0.0054,-0.0022,-0.0036,-0.0049,-0.0045,-0.0047,-0.0048,-0.004,-0.004,-0.0032,-0.0032,-0.0032,0,-0.0048,-0.0083,-0.0081,-0.0114,-0.0133,-0.0104,-0.0139,-0.0142,-0.0134,-0.0133,-0.009,-0.007,-0.0055,-0.0072,-0.0056,-0.0059,-0.0037,-0.0035,-0.0046,-0.0047,-0.0049,-0.004,-0.0041,-0.0032,-0.0032,-0.0032,-0.0032,0,-0.01,-0.0132,-0.0153,-0.0187,-0.021,-0.0236,-0.0243,-0.0246,-0.0212,-0.02,-0.0188,-0.0153,-0.013,-0.0116,-0.0083,-0.0082,-0.0056,-0.0048,-0.0035,-0.005,-0.0041,-0.0041,-0.0032,-0.0032,-0.0032,-0.0032,0,0,-0.0118,-0.0177,-0.0185,-0.0214,-0.0248,-0.0274,-0.0312,-0.0337,-0.0345,-0.0306,-0.0308,-0.0273,-0.0203,-0.0198,-0.0146,-0.0129,-0.0098,-0.007,-0.007,-0.0054,-0.0066,-0.0127,-0.0134,-0.0067,-0.0067,-0.0067,-0.0051,0,-0.0158,-0.0228,-0.0253,-0.0327,-0.0363,-0.0372,-0.0413,-0.0427,-0.041,-0.0403,-0.0353,-0.0322,-0.0251,-0.0197,-0.0174,-0.0117,-0.01,-0.0103,-0.0062,-0.0062,-0.0108,-0.0138,-0.0069,-0.0051,-0.0051,-0.0051,-0.0051,0,-0.0203,-0.0245,-0.0317,-0.0393,-0.0409,-0.0446,-0.0491,-0.0516,-0.0514,-0.0485,-0.0439,-0.0382,-0.0331,-0.0264,-0.0194,-0.0181,-0.012,-0.0085,-0.0084,-0.0148,-0.0126,-0.0037,-0.0053,-0.0053,-0.0053,-0.0052,-0.0052,0,-0.0212,-0.0297,-0.0352,-0.0379,-0.0453,-0.0483,-0.0506,-0.0528,-0.0539,-0.0507,-0.0485,-0.0432,-0.0375,-0.0308,-0.0211,-0.0177,-0.0153,-0.0111,-0.0128,-0.0131,-0.0076,-0.0075,-0.0085,-0.0085,-0.0085,-0.0085,-0.0085,0,-0.0248,-0.0303,-0.0354,-0.0389,-0.0449,-0.0487,-0.053,-0.0542,-0.0545,-0.0538,-0.0491,-0.0466,-0.0372,-0.0338,-0.0249,-0.0204,-0.0183,-0.0149,-0.0141,-0.0075,-0.0074,-0.0076,-0.0075,-0.0085,-0.0085,-0.0085,-0.0085,0,-0.0266,-0.0298,-0.0373,-0.0441,-0.0457,-0.0489,-0.0533,-0.0557,-0.0547,-0.0533,-0.0507,-0.048,-0.0429,-0.0386,-0.0299,-0.0262,-0.0214,-0.0206,-0.0157,-0.0144,-0.0176,-0.0176,-0.0213,-0.0216,-0.0217,-0.0219,-0.022,0,-0.0287,-0.0317,-0.0394,-0.0411,-0.044,-0.0481,-0.051,-0.0538,-0.0533,-0.0528,-0.0507,-0.0494,-0.046,-0.0406,-0.0366,-0.0294,-0.0271,-0.0254,-0.0198,-0.0206,-0.0194,-0.019,-0.0187,-0.0224,-0.0224,-0.0225,-0.0225,0,-0.0325,-0.0343,-0.0398,-0.0407,-0.0441,-0.05,-0.0514,-0.0497,-0.0501,-0.0523,-0.0472,-0.0457,-0.0447,-0.0404,-0.0391,-0.032,-0.0271,-0.0273,-0.0266,-0.0213,-0.0219,-0.0204,-0.0199,-0.0232,-0.0231,-0.023,-0.023,0,-0.0351,-0.0379,-0.0403,-0.0403,-0.0435,-0.0451,-0.0493,-0.0475,-0.0483,-0.0442,-0.0433,-0.0425,-0.0427,-0.0421,-0.0389,-0.0369,-0.0329,-0.028,-0.0273,-0.0265,-0.0297,-0.0313,-0.0364,0,0,0,0,0,-0.035,-0.0353,-0.0378,-0.039,-0.0407,-0.0414,-0.0456,-0.0486,-0.047,-0.0422,-0.0413,-0.039,-0.0379,-0.0394,-0.0375,-0.0426,-0.0342,-0.0407,-0.0284,-0.0269,-0.0261,-0.0298,0,0,0,0,0,0,-0.0363,-0.0383,-0.0376,-0.0338,-0.0314,-0.0363,-0.0376,-0.0404,-0.0363,-0.0343,-0.0337,-0.0361,-0.0358,-0.0359,-0.0355,-0.0362,-0.0278,-0.0417,-0.0416,-0.0273,-0.0266,-0.026,-0.0295,0,0,0,0,0]}]]